| time (UTC) | temp F | wind direction | speed MPH | gust MPH | rain 1hr in | rain 24hr in | rain mn in | humidity % | barometer mb |
| 20260502182503 | 54 | 28 | 0.0 | 0.0 | 0.00 | 0.00 | 0.00 | 88 | 1000.3 |
| 20260502181003 | 54 | 349 | 0.0 | 0.0 | 0.00 | 0.00 | 0.00 | 88 | 1000.3 |
| 20260502161504 | 51 | 0 | 0.0 | 0.0 | 0.00 | 0.00 | 0.00 | 92 | 1000.0 |
| 20260502151505 | 51 | 337 | 0.0 | 0.0 | 0.00 | 0.00 | 0.00 | 92 | 999.7 |
| 20260502130504 | 51 | 357 | 0.0 | 0.0 | 0.00 | 0.00 | 0.00 | 92 | 999.0 |
| 20260502123504 | 50 | 357 | 0.0 | 0.0 | 0.00 | 0.00 | 0.00 | 92 | 999.0 |
| 20260502122003 | 50 | 357 | 0.0 | 0.0 | 0.00 | 0.00 | 0.00 | 92 | 998.6 |
| 20260502120505 | 50 | 353 | 0.0 | 0.0 | 0.00 | 0.00 | 0.00 | 92 | 998.6 |
| 20260502115004 | 50 | 11 | 0.0 | 0.0 | 0.00 | 0.00 | 0.00 | 92 | 998.6 |
| 20260502113504 | 50 | 42 | 0.0 | 0.0 | 0.00 | 0.00 | 0.00 | 92 | 999.0 |
| 20260502112004 | 50 | 0 | 0.0 | 0.0 | 0.00 | 0.00 | 0.00 | 91 | 998.6 |
| 20260502110503 | 50 | 338 | 0.0 | 0.0 | 0.00 | 0.00 | 0.00 | 92 | 998.6 |
| 20260502105003 | 50 | 359 | 0.0 | 0.0 | 0.00 | 0.00 | 0.00 | 92 | 999.0 |
| 20260502103503 | 50 | 334 | 0.0 | 0.0 | 0.00 | 0.00 | 0.00 | 92 | 999.0 |
| 20260502100504 | 50 | 305 | 0.0 | 0.0 | 0.00 | 0.00 | 0.00 | 92 | 999.0 |
| 20260502091003 | 50 | 17 | 0.0 | 0.0 | 0.00 | 0.00 | 0.00 | 91 | 999.3 |
| 20260502065503 | 52 | 5 | 0.0 | 0.0 | 0.00 | 0.00 | 0.00 | 90 | 999.3 |
| 20260502064003 | 52 | 17 | 0.0 | 0.0 | 0.00 | 0.00 | 0.00 | 89 | 999.7 |
| 20260502062504 | 52 | 18 | 0.0 | 0.0 | 0.00 | 0.00 | 0.00 | 89 | 999.7 |
| 20260502061006 | 51 | 357 | 0.0 | 0.0 | 0.00 | 0.00 | 0.00 | 88 | 999.7 |
| 20260502055503 | 52 | 7 | 0.0 | 0.0 | 0.00 | 0.00 | 0.00 | 88 | 999.7 |
| 20260502054003 | 52 | 0 | 0.0 | 0.0 | 0.00 | 0.00 | 0.00 | 88 | 999.7 |
| 20260502052504 | 52 | 359 | 0.0 | 0.0 | 0.00 | 0.00 | 0.00 | 87 | 999.7 |
| 20260502051004 | 53 | 351 | 0.0 | 0.0 | 0.00 | 0.00 | 0.00 | 87 | 999.7 |
| 20260502045504 | 53 | 351 | 0.0 | 0.0 | 0.00 | 0.00 | 0.00 | 86 | 999.7 |
| 20260502042503 | 54 | 345 | 0.0 | 0.0 | 0.00 | 0.00 | 0.00 | 85 | 999.3 |
| 20260502041005 | 55 | 3 | 0.0 | 0.0 | 0.00 | 0.00 | 0.00 | 84 | 999.3 |
| 20260502040004 | 55 | 11 | 0.0 | 0.0 | 0.00 | 0.00 | 0.00 | 84 | 999.0 |
| 20260502033004 | 57 | 12 | 0.0 | 0.0 | 0.00 | 0.00 | 0.00 | 82 | 999.0 |
| 20260502031502 | 59 | 16 | 0.0 | 0.0 | 0.00 | 0.00 | 0.00 | 79 | 998.6 |
| 20260502030004 | 60 | 343 | 0.0 | 0.0 | 0.00 | 0.00 | 0.00 | 74 | 998.6 |
| 20260502024506 | 61 | 339 | 0.0 | 0.0 | 0.00 | 0.00 | 0.00 | 75 | 998.3 |
| 20260502023504 | 61 | 320 | 0.0 | 0.0 | 0.00 | 0.00 | 0.00 | 75 | 998.3 |
| 20260502022004 | 62 | 327 | 0.0 | 0.0 | 0.00 | 0.00 | 0.00 | 76 | 998.3 |
| 20260502020504 | 62 | 317 | 0.0 | 0.0 | 0.00 | 0.00 | 0.00 | 75 | 998.6 |
| 20260502015004 | 63 | 307 | 0.0 | 0.0 | 0.00 | 0.00 | 0.00 | 73 | 998.6 |
| 20260502013504 | 63 | 326 | 0.0 | 0.0 | 0.00 | 0.00 | 0.00 | 71 | 998.6 |
| 20260502012504 | 63 | 285 | 0.0 | 0.0 | 0.00 | 0.00 | 0.00 | 71 | 998.6 |
| 20260502010004 | 64 | 309 | 0.0 | 0.0 | 0.00 | 0.00 | 0.00 | 73 | 998.6 |
| 20260502004504 | 65 | 348 | 0.0 | 0.0 | 0.00 | 0.00 | 0.00 | 75 | 999.0 |
| 20260502003005 | 65 | 289 | 0.0 | 0.0 | 0.00 | 0.00 | 0.00 | 75 | 999.0 |
| 20260502001504 | 65 | 331 | 0.0 | 0.0 | 0.00 | 0.00 | 0.00 | 75 | 999.0 |
| 20260502000004 | 65 | 332 | 0.0 | 0.0 | 0.00 | 0.00 | 0.00 | 75 | 999.0 |
| 20260501234505 | 66 | 345 | 0.0 | 0.0 | 0.00 | 0.00 | 0.00 | 75 | 999.0 |
| 20260501233005 | 66 | 277 | 0.0 | 1.0 | 0.00 | 0.00 | 0.00 | 71 | 999.0 |
| 20260501231505 | 66 | 356 | 0.0 | 0.0 | 0.00 | 0.00 | 0.00 | 71 | 999.3 |
| 20260501230006 | 67 | 15 | 0.0 | 1.0 | 0.00 | 0.00 | 0.00 | 71 | 999.3 |
| 20260501225005 | 67 | 350 | 0.0 | 0.0 | 0.00 | 0.00 | 0.00 | 69 | 999.3 |
| 20260501222005 | 68 | 48 | 0.0 | 2.0 | 0.00 | 0.00 | 0.00 | 71 | 999.7 |
| 20260501220505 | 69 | 36 | 0.0 | 0.0 | 0.00 | 0.00 | 0.00 | 72 | 1000.0 |
| 20260501213503 | 70 | 46 | 2.0 | 3.0 | 0.00 | 0.00 | 0.00 | 69 | 1000.3 |
| 20260501212005 | 71 | 35 | 0.0 | 3.0 | 0.00 | 0.00 | 0.00 | 67 | 1000.3 |
| 20260501210505 | 70 | 359 | 0.0 | 0.0 | 0.00 | 0.00 | 0.00 | 71 | 1000.3 |
| 20260501202005 | 68 | 59 | 1.0 | 2.0 | 0.00 | 0.00 | 0.00 | 71 | 1000.7 |
| 20260501200504 | 67 | 46 | 1.0 | 3.0 | 0.00 | 0.00 | 0.00 | 72 | 1001.0 |
| 20260501195005 | 66 | 26 | 0.0 | 3.0 | 0.00 | 0.00 | 0.00 | 73 | 1001.0 |
| 20260501193504 | 65 | 50 | 0.0 | 2.0 | 0.00 | 0.00 | 0.00 | 74 | 1001.4 |
| 20260501192005 | 64 | 59 | 0.0 | 0.0 | 0.00 | 0.00 | 0.00 | 76 | 1001.4 |
| 20260501190504 | 63 | 2 | 0.0 | 0.0 | 0.00 | 0.00 | 0.00 | 77 | 1001.4 |
| 20260501185004 | 63 | 51 | 0.0 | 0.0 | 0.00 | 0.00 | 0.00 | 77 | 1001.7 |
| 20260501183505 | 62 | 9 | 0.0 | 0.0 | 0.00 | 0.00 | 0.00 | 78 | 1001.7 |